Miscellaneous Local Product
Issued by NWS North Platte, NE

Home | Current Version | Previous Version | Graphics & Text | Print | Product List | Glossary On
Versions: 1 2 3 4 5 6 7 8 9 10 11 12 13 14 15 16 17 18 19 20 21 22 23 24 25 26 27 28 29 30 31 32 33 34 35 36 37 38 39 40 41 42 43 44 45 46 47 48 49 50
891
AXUS43 KLBF 260210
MISLBF


WESTERN AND NORTH CENTRAL NEBRASKA HOURLY WEATHER ROUNDUP
NATIONAL WEATHER SERVICE NORTH PLATTE NE
900 PM CDT TUE JUL 25 2017

NOTE: "FAIR" INDICATES FEW OR NO CLOUDS BELOW 12,000 FEET WITH NO
SIGNIFICANT WEATHER AND/OR OBSTRUCTIONS TO VISIBILITY.

NOTE: STATIONS NOT REPORTING VARIABLES SUCH AS SKY/WEATHER OR
PRESSURE ARE PROVIDED BY RAWS AND APRS NETWORKS AND ARE NOT UNDER
NATIONAL WEATHER SERVICE QUALITY CONTROL.

...OBSERVATIONS IN AND NEAR THE EASTERN PANHANDLE OF NEBRASKA...

CITY           SKY/WX    TMP DP  RH WIND       PRES   REMARKS
PINE RIDGE     CLEAR     79  61  53 NE7       30.00R
GORDON         FAIR      79  64  61 NE13      30.00R
CHADRON        MOCLDY    85  54  34 NE15      30.00R
ALLIANCE       CLOUDY    82  61  48 N10       29.97R
SIDNEY         CLOUDY    86  54  33 S8        29.99R
CRESCENT LAKE    N/A     81  56  42 NE10G17     N/A
$$

...OBSERVATIONS IN NORTHERN NEBRASKA AND FAR SOUTHERN SOUTH DAKOTA...

CITY           SKY/WX    TMP DP  RH WIND       PRES   REMARKS
WINNER         FAIR      73  68  84 N9        29.96R
VALENTINE      LGT RAIN  77  65  66 N18G24    29.94R
THEDFORD       CLOUDY    84  64  49 N10       29.92R
AINSWORTH      TSTM      69  68  95 CALM      29.92R
O`NEILL        CLOUDY    86  67  53 S9        29.87F
ORD            CLOUDY    87  62  43 SE13G21   29.87F
BROKEN BOW     MOCLDY    87  67  51 SE13      29.89S HX  90
VALENTINE NWR    N/A     71  66  84 NE9G20      N/A
HALSEY           N/A     90  64  42 SE9G21      N/A  HX  91
BUTTE            N/A     78  67  68 W7          N/A
CHAMBERS         N/A     84  65  52 SE3         N/A
EWING            N/A     82  70  68 CALM        N/A
$$

...OBSERVATIONS IN SOUTHWEST NEBRASKA AND FAR NORTHEAST COLORADO...

CITY           SKY/WX    TMP DP  RH WIND       PRES   REMARKS
HOLYOKE        FAIR      79  63  57 S23G32    29.96S
IMPERIAL       CLOUDY    92  61  35 SE15      29.88F HX  92
OGALLALA       CLOUDY    89  64  44 SW6       29.90R HX  90
NORTH PLATTE   CLOUDY    92  65  40 SE10      29.88R HX  94
MCCOOK         PTCLDY    93  64  38 S12       29.88R HX  94
LEXINGTON      PTCLDY    86  69  56 SE12      29.89F HX  90
STAPLETON        N/A     87  67  51 CALM        N/A  HX  90
GOTHENBURG       N/A     91  64  40 SE8         N/A  HX  92
CALLAWAY         N/A     88  72  59 S13         N/A  HX  95
$$

...OBSERVATIONS IN CENTRAL LINCOLN COUNTY AREA...

CITY           SKY/WX    TMP DP  RH WIND       PRES   REMARKS
N.P. AIRPORT   CLOUDY    92  65  40 SE10      29.88R HX  94
N.P. DOWNTOWN    N/A     93  66  40 CALM        N/A  HX  95
N.P. SOUTHEAST   N/A     92  64  39 S6          N/A  HX  93
N.P. HILLCREST   N/A     90  65  43 SE7         N/A  HX  92
$$

...SOME OBSERVATIONS FROM AROUND THE REGION...

CITY           SKY/WX    TMP DP  RH WIND       PRES   REMARKS
DENVER         CLOUDY    71  60  68 NW9       30.16R
LIMON          CLOUDY    71  61  70 N15       30.12R
ASPEN          RAIN      59  55  87 CALM      30.37R FOG
LARAMIE        LGT RAIN  58  56  93 N8        30.32S
CASPER         CLOUDY    64  56  75 NE6       30.23R
CHEYENNE       CLOUDY    69  55  60 NW13      30.22F
SCOTTSBLUFF    CLOUDY    84  59  42 N16       30.01R
GRAND ISLAND   CLOUDY    83  69  62 SE13      29.92R
OMAHA          CLOUDY    88  71  57 SE15      29.93F HX  94
SIOUX FALLS    CLOUDY    80  70  71 N9G26     29.94R
PIERRE         CLOUDY    82  69  64 NE12      29.94R
RAPID CITY     PTCLDY    78  59  51 N15       30.06R
BISMARCK       CLOUDY    81  50  33 N6        29.98S
KANSAS CITY    CLEAR     86  73  65 SE7       30.02R HX  93
HILL CITY      PTCLDY    93  66  40 S8        29.90R HX  96
WICHITA        PTCLDY    89  67  47 SE14      29.95R HX  92
DODGE CITY     CLEAR     90  62  39 S16G23    29.95S HX  90
OKLAHOMA CITY  CLEAR     87  70  56 S10       30.00R HX  92
DALLAS         CLEAR     91  69  48 SE13      30.00R HX  96
AMARILLO       PTCLDY    89  57  33 S16       30.07R
$$




USA.gov is the U.S. government's official web portal to all federal, state and local government web resources and services.